Regional Weather Roundup
Issued by NWS

Home | Current Version | Previous Version | Text Only | Print | Product List | Glossary Off
Versions: 1 2 3 4 5 6 7 8 9 10 11 12 13 14 15 16 17 18 19 20 21 22 23 24 25 26 27 28 29 30 31 32 33 34 35 36 37 38 39 40 41 42 43 44 45 46 47 48 49 50

000
ASUS45 KBOU 301307
RWRCO

WEATHER ROUNDUP FOR COLORADO
NATIONAL WEATHER SERVICE DENVER/BOULDER CO
700 AM MDT WED JUL 30 2014

NOTE: "FAIR" INDICATES FEW OR NO CLOUDS BELOW 12000 FEET WITH NO
SIGNIFICANT WEATHER AND/OR OBSTRUCTIONS TO VISIBILITY.

COZ001>005-013-030-031-301400-
...NORTHWEST COLORADO...

CITY           SKY/WX    TMP DP  RH WIND       PRES   REMARKS
CRAIG          CLOUDY    55  55 100 W5        30.29S
HAYDEN         CLOUDY    55  54  94 CALM      30.30S
MEEKER         CLOUDY    52  50  93 E5        30.32S
MOUNT WERNER   NOT AVBL
STEAMBOAT SPGS CLOUDY    55  54  97 SE3       30.32R
WALDEN         CLOUDY    50  46  87 CALM      30.38R
$$

COZ006>008-011-301400-
...WEST CENTRAL VALLEYS...

CITY           SKY/WX    TMP DP  RH WIND       PRES   REMARKS
GRAND JUNCTION PTCLDY    58  57  97 CALM      30.21S
MONTROSE       MOCLDY    58  54  86 S6        30.28S
EAGLE          MOCLDY    55  55 100 CALM      30.33S
RIFLE          PTCLDY    55  54  96 CALM      30.27R
DELTA          PTCLDY    59  55  88 CALM      30.24S
NUCLA          PTCLDY    57  54  88 E5        30.29S
$$

COZ017>023-064>068-301400-
...SOUTHWEST COLORADO...

CITY           SKY/WX    TMP DP  RH WIND       PRES   REMARKS
DURANGO        PTCLDY    58  54  86 NE3       30.28R
CORTEZ         PTCLDY    57  54  89 NE6       30.24S
PAGOSA SPRINGS MOCLDY    57  52  81 CALM      30.36R
TELLURIDE      CLOUDY    52  48  87 CALM      30.45R
WOLF CREEK PAS NOT AVBL
$$

COZ009-010-012-014-032>034-037-058>063-301400-
...CENTRAL COLORADO...

CITY           SKY/WX    TMP DP  RH WIND       PRES   REMARKS
ASPEN          PTCLDY    50  48  93 SW3       30.37R
BUENA VISTA    CLOUDY    55  51  87 CALM      30.38R
COPPER MTN     DRIZZLE   45  39  81 W7        30.62R
BERTHOUD PASS  FOG       36  36 100 SE6       30.66R VSB<1/4
COTTONWOOD PAS CLOUDY    54  43  66 CALM      30.48S
GUNNISON       CLOUDY    54  46  76 N3        30.40S
KREMMLING      DRIZZLE   54  50  87 CALM      30.37R
LEADVILLE      CLOUDY    47  44  90 E3        30.47S
MONARCH PASS   CLOUDY    41  37  87 W16       30.70R FOG
SALIDA         CLOUDY    56  54  94 CALM      30.43R
SUNLIGHT       MOCLDY    46  45  93 CALM      30.55S
WILKERSON PASS FOG       43  43 100 NE5       30.59R VSB 1/4
$$

COZ069>075-301400-
...SAN LUIS VALLEY/SANGRE DE CRISTO MOUNTAINS...

CITY           SKY/WX    TMP DP  RH WIND       PRES   REMARKS
ALAMOSA        CLEAR     51  50  96 CALM      30.34R FOG
LA VETA PASS   FOG       45  45 100 CALM      30.50R VSB 3/4
SAGUACHE       CLOUDY    52  46  82 NW9       30.37S
$$

COZ035-036-038>040-301400-
...NORTHERN COLORADO FRONT RANGE...

CITY           SKY/WX    TMP DP  RH WIND       PRES   REMARKS
DENVER INTL AP LGT RAIN  59  57  93 NE6       30.29R FOG
DMNS CITY PARK   N/A     59  58  96 NE3       30.30R
AURORA         LGT RAIN  57  57 100 NE5       30.31R FOG
FRONT RANGE AP RAIN      61  59  94 N5        30.30R
ERIE MUNI ARPT LGT RAIN  59  58  96 NE6       30.29S
BOULDER MUN AP RAIN      57  57 100 NW6       30.30
CENTENNIAL     LGT RAIN  57  55  93 NE9       30.31R
BROOMFIELD     RAIN      57  57 100 NE6       30.32R
FORT COLLINS   CLOUDY    59  57  94 NE7       30.31S
LONGMONT       LGT RAIN  61  59  93 NE5       30.31S
$$

COZ041-046-047-076>085-087-088-301400-
...PIKES PEAK/PALMER DIVIDE AND SOUTHERN FOOTHILLS...

CITY           SKY/WX    TMP DP  RH WIND       PRES   REMARKS
COLO. SPRINGS  LGT RAIN  59  56  89 NE8       30.30S
A. F. ACADEMY  PTSUNNY   56  56  99 N9        30.32R
ELLICOTT       LGT RAIN  57  55  93 E12       30.28S FOG
FALCON         CLOUDY    55  55  99 NE8       30.34R
FORT CARSON    RAIN      59  57  94 N3        30.29R
LIMON          CLOUDY    58  56  93 NE12      30.27R
MONUMENT HILL  DRIZZLE   52  52 100 NE7       30.34R
TRINIDAD       CLOUDY    60  58  92 N9        30.26R
$$

COZ042>045-048>051-090-091-301400-
...NORTHEAST COLORADO...

CITY           SKY/WX    TMP DP  RH WIND       PRES   REMARKS
GREELEY ARPT   NOT AVBL
AKRON          LGT RAIN  59  58  96 E8        30.27R FOG
BURLINGTON     CLOUDY    59  56  89 E15       30.22R
WRAY             N/A    N/A N/A N/A E8        30.24R
STERLING       RAIN      64  63  94 NE5       30.25R
HOLYOKE        CLOUDY    63  61  94 E3        30.25S
FORT MORGAN    CLOUDY    60  58  92 NE6       30.28R
$$

COZ086-089-092>099-301400-
...SOUTHEAST COLORADO...

CITY           SKY/WX    TMP DP  RH WIND       PRES   REMARKS
PUEBLO         CLOUDY    63  61  93 W5        30.22R
LA JUNTA       CLOUDY    63  61  93 N10       30.19R
LAMAR          LGT RAIN  63  61  93 N15       30.13R FOG
SPRINGFIELD      N/A     61  60  97 N16G24    30.13R
$$



USA.gov is the U.S. government's official web portal to all federal, state and local government web resources and services.